| time (UTC) | temp F | wind direction | speed MPH | gust MPH | rain 1hr in | rain 24hr in | rain mn in | humidity % | barometer mb |
| 20260905001211 | 68 | 197 | 0.0 | 0.0 | 0.00 | 0.00 | 0.00 | 75 | 1018.0 |
| 20260905000211 | 68 | 88 | 0.0 | 0.0 | 0.00 | 0.00 | 0.00 | 75 | 1017.8 |
| 20260904235211 | 68 | 67 | 0.0 | 3.0 | 0.00 | 0.00 | 0.00 | 75 | 1017.7 |
| 20260904234211 | 68 | 82 | 1.0 | 3.0 | 0.00 | 0.00 | 0.00 | 75 | 1017.7 |
| 20260904233210 | 68 | 36 | 0.0 | 0.0 | 0.00 | 0.00 | 0.00 | 75 | 1017.6 |
| 20260904232211 | 68 | 80 | 2.0 | 6.0 | 0.00 | 0.00 | 0.00 | 76 | 1017.3 |
| 20260904231210 | 68 | 128 | 1.0 | 4.0 | 0.00 | 0.00 | 0.00 | 75 | 1017.3 |
| 20260904230211 | 69 | 105 | 2.0 | 3.0 | 0.00 | 0.00 | 0.00 | 74 | 1017.2 |
| 20260904225211 | 69 | 306 | 2.0 | 3.0 | 0.00 | 0.00 | 0.00 | 74 | 1017.1 |
| 20260904224211 | 69 | 268 | 2.0 | 3.0 | 0.00 | 0.00 | 0.00 | 74 | 1017.1 |
| 20260904223211 | 70 | 251 | 1.0 | 3.0 | 0.00 | 0.00 | 0.00 | 74 | 1016.8 |
| 20260904222210 | 70 | 251 | 1.0 | 3.0 | 0.00 | 0.00 | 0.00 | 73 | 1016.6 |
| 20260904221211 | 71 | 246 | 0.0 | 2.0 | 0.00 | 0.00 | 0.00 | 71 | 1016.4 |
| 20260904220211 | 71 | 246 | 0.0 | 3.0 | 0.00 | 0.00 | 0.00 | 70 | 1016.4 |
| 20260904215211 | 72 | 237 | 1.0 | 2.0 | 0.00 | 0.00 | 0.00 | 69 | 1016.3 |
| 20260904214211 | 72 | 248 | 1.0 | 3.0 | 0.00 | 0.00 | 0.00 | 68 | 1016.2 |
| 20260904213211 | 72 | 225 | 1.0 | 3.0 | 0.00 | 0.00 | 0.00 | 68 | 1016.2 |
| 20260904212211 | 73 | 229 | 1.0 | 4.0 | 0.00 | 0.00 | 0.00 | 67 | 1016.2 |
| 20260904211211 | 73 | 310 | 1.0 | 3.0 | 0.00 | 0.00 | 0.00 | 68 | 1016.1 |
| 20260904210211 | 74 | 265 | 2.0 | 4.0 | 0.00 | 0.00 | 0.00 | 67 | 1015.9 |
| 20260904205211 | 74 | 224 | 2.0 | 4.0 | 0.00 | 0.00 | 0.00 | 66 | 1015.9 |
| 20260904204211 | 74 | 202 | 3.0 | 4.0 | 0.00 | 0.00 | 0.00 | 66 | 1015.8 |
| 20260904203211 | 75 | 213 | 2.0 | 4.0 | 0.00 | 0.00 | 0.00 | 66 | 1015.8 |
| 20260904202211 | 75 | 225 | 2.0 | 3.0 | 0.00 | 0.00 | 0.00 | 64 | 1015.8 |
| 20260904201211 | 76 | 265 | 1.0 | 2.0 | 0.00 | 0.00 | 0.00 | 63 | 1015.7 |
| 20260904200211 | 76 | 291 | 1.0 | 3.0 | 0.00 | 0.00 | 0.00 | 62 | 1015.6 |
| 20260904195211 | 77 | 200 | 1.0 | 3.0 | 0.00 | 0.00 | 0.00 | 61 | 1015.6 |
| 20260904194212 | 77 | 204 | 1.0 | 3.0 | 0.00 | 0.00 | 0.00 | 60 | 1015.5 |
| 20260904193211 | 78 | 240 | 1.0 | 3.0 | 0.00 | 0.00 | 0.00 | 58 | 1015.5 |
| 20260904192211 | 78 | 202 | 2.0 | 4.0 | 0.00 | 0.00 | 0.00 | 58 | 1015.5 |
| 20260904191211 | 79 | 198 | 3.0 | 7.0 | 0.00 | 0.00 | 0.00 | 58 | 1015.3 |
| 20260904190211 | 79 | 196 | 2.0 | 7.0 | 0.00 | 0.00 | 0.00 | 58 | 1015.3 |
| 20260904185211 | 80 | 214 | 1.0 | 3.0 | 0.00 | 0.00 | 0.00 | 57 | 1015.2 |
| 20260904184211 | 81 | 240 | 2.0 | 6.0 | 0.00 | 0.00 | 0.00 | 56 | 1015.2 |
| 20260904183211 | 82 | 220 | 3.0 | 4.0 | 0.00 | 0.00 | 0.00 | 54 | 1015.1 |
| 20260904182211 | 83 | 235 | 3.0 | 4.0 | 0.00 | 0.00 | 0.00 | 53 | 1015.1 |
| 20260904181211 | 84 | 222 | 2.0 | 3.0 | 0.00 | 0.00 | 0.00 | 52 | 1014.9 |
| 20260904180211 | 84 | 260 | 2.0 | 4.0 | 0.00 | 0.00 | 0.00 | 50 | 1014.8 |
| 20260904175211 | 85 | 252 | 3.0 | 4.0 | 0.00 | 0.00 | 0.00 | 50 | 1014.8 |
| 20260904174211 | 85 | 259 | 2.0 | 3.0 | 0.00 | 0.00 | 0.00 | 49 | 1014.7 |
| 20260904173211 | 86 | 274 | 2.0 | 6.0 | 0.00 | 0.00 | 0.00 | 47 | 1014.7 |
| 20260904172211 | 86 | 264 | 3.0 | 7.0 | 0.00 | 0.00 | 0.00 | 47 | 1014.6 |
| 20260904171211 | 86 | 280 | 3.0 | 10.0 | 0.00 | 0.00 | 0.00 | 46 | 1014.7 |
| 20260904170211 | 87 | 305 | 3.0 | 9.0 | 0.00 | 0.00 | 0.00 | 45 | 1014.8 |
| 20260904165211 | 87 | 263 | 4.0 | 12.0 | 0.00 | 0.00 | 0.00 | 45 | 1014.7 |
| 20260904164211 | 87 | 320 | 6.0 | 11.0 | 0.00 | 0.00 | 0.00 | 44 | 1014.7 |
| 20260904163211 | 87 | 257 | 8.0 | 14.0 | 0.00 | 0.00 | 0.00 | 43 | 1014.6 |
| 20260904162211 | 88 | 235 | 6.0 | 13.0 | 0.00 | 0.00 | 0.00 | 44 | 1014.6 |
| 20260904161211 | 88 | 271 | 4.0 | 13.0 | 0.00 | 0.00 | 0.00 | 43 | 1014.6 |
| 20260904160211 | 88 | 319 | 8.0 | 12.0 | 0.00 | 0.00 | 0.00 | 43 | 1014.5 |
| 20260904155210 | 88 | 251 | 9.0 | 14.0 | 0.00 | 0.00 | 0.00 | 43 | 1014.6 |
| 20260904154211 | 88 | 286 | 9.0 | 15.0 | 0.00 | 0.00 | 0.00 | 43 | 1014.6 |
| 20260904153210 | 89 | 273 | 6.0 | 15.0 | 0.00 | 0.00 | 0.00 | 43 | 1014.6 |
| 20260904152211 | 89 | 259 | 8.0 | 17.0 | 0.00 | 0.00 | 0.00 | 43 | 1014.7 |
| 20260904151210 | 89 | 203 | 10.0 | 19.0 | 0.00 | 0.00 | 0.00 | 42 | 1014.6 |
| 20260904150210 | 89 | 277 | 8.0 | 17.0 | 0.00 | 0.00 | 0.00 | 43 | 1014.7 |
| 20260904145210 | 89 | 241 | 6.0 | 13.0 | 0.00 | 0.00 | 0.00 | 42 | 1014.6 |
| 20260904144210 | 89 | 191 | 9.0 | 15.0 | 0.00 | 0.00 | 0.00 | 42 | 1014.5 |
| 20260904143210 | 89 | 279 | 11.0 | 17.0 | 0.00 | 0.00 | 0.00 | 42 | 1014.6 |
| 20260904142210 | 90 | 250 | 11.0 | 17.0 | 0.00 | 0.00 | 0.00 | 42 | 1014.6 |
| 20260904141210 | 90 | 237 | 10.0 | 19.0 | 0.00 | 0.00 | 0.00 | 42 | 1014.8 |
| 20260904140210 | 90 | 218 | 9.0 | 16.0 | 0.00 | 0.00 | 0.00 | 42 | 1015.0 |
| 20260904135211 | 90 | 268 | 7.0 | 15.0 | 0.00 | 0.00 | 0.00 | 42 | 1015.1 |
| 20260904134210 | 91 | 218 | 8.0 | 17.0 | 0.00 | 0.00 | 0.00 | 42 | 1015.1 |
| 20260904133210 | 91 | 304 | 7.0 | 16.0 | 0.00 | 0.00 | 0.00 | 41 | 1015.3 |
| 20260904132210 | 92 | 236 | 10.0 | 16.0 | 0.00 | 0.00 | 0.00 | 40 | 1015.4 |
| 20260904131210 | 93 | 223 | 9.0 | 17.0 | 0.00 | 0.00 | 0.00 | 41 | 1015.5 |
| 20260904130210 | 93 | 225 | 9.0 | 19.0 | 0.00 | 0.00 | 0.00 | 40 | 1015.7 |
| 20260904125210 | 94 | 225 | 9.0 | 18.0 | 0.00 | 0.00 | 0.00 | 39 | 1015.9 |
| 20260904124210 | 94 | 257 | 9.0 | 18.0 | 0.00 | 0.00 | 0.00 | 39 | 1016.0 |
| 20260904123210 | 94 | 248 | 9.0 | 18.0 | 0.00 | 0.00 | 0.00 | 39 | 1016.2 |
| 20260904122210 | 94 | 213 | 7.0 | 15.0 | 0.00 | 0.00 | 0.00 | 39 | 1016.2 |
| 20260904121210 | 93 | 252 | 6.0 | 16.0 | 0.00 | 0.00 | 0.00 | 40 | 1016.3 |
| 20260904120210 | 93 | 273 | 7.0 | 17.0 | 0.00 | 0.00 | 0.00 | 41 | 1016.4 |
| 20260904115210 | 92 | 291 | 8.0 | 19.0 | 0.00 | 0.00 | 0.00 | 40 | 1016.5 |
| 20260904114210 | 92 | 259 | 7.0 | 16.0 | 0.00 | 0.00 | 0.00 | 41 | 1016.6 |
| 20260904113210 | 91 | 250 | 8.0 | 19.0 | 0.00 | 0.00 | 0.00 | 41 | 1016.7 |
| 20260904112210 | 90 | 287 | 12.0 | 17.0 | 0.00 | 0.00 | 0.00 | 41 | 1016.8 |
| 20260904111210 | 90 | 255 | 10.0 | 17.0 | 0.00 | 0.00 | 0.00 | 43 | 1016.9 |
| 20260904110210 | 89 | 234 | 11.0 | 18.0 | 0.00 | 0.00 | 0.00 | 44 | 1017.0 |
| 20260904105210 | 88 | 243 | 10.0 | 18.0 | 0.00 | 0.00 | 0.00 | 44 | 1017.2 |
| 20260904104210 | 87 | 240 | 8.0 | 18.0 | 0.00 | 0.00 | 0.00 | 44 | 1017.4 |
| 20260904103210 | 87 | 279 | 8.0 | 19.0 | 0.00 | 0.00 | 0.00 | 45 | 1017.6 |
| 20260904102210 | 86 | 198 | 11.0 | 18.0 | 0.00 | 0.00 | 0.00 | 45 | 1017.7 |
| 20260904101210 | 85 | 169 | 7.0 | 15.0 | 0.00 | 0.00 | 0.00 | 46 | 1017.9 |
| 20260904100210 | 85 | 186 | 9.0 | 16.0 | 0.00 | 0.00 | 0.00 | 47 | 1017.9 |
| 20260904095210 | 84 | 242 | 8.0 | 17.0 | 0.00 | 0.00 | 0.00 | 47 | 1018.1 |
| 20260904094210 | 83 | 282 | 8.0 | 15.0 | 0.00 | 0.00 | 0.00 | 48 | 1018.3 |
| 20260904093210 | 82 | 183 | 8.0 | 15.0 | 0.00 | 0.00 | 0.00 | 48 | 1018.3 |
| 20260904092210 | 82 | 288 | 7.0 | 16.0 | 0.00 | 0.00 | 0.00 | 48 | 1018.6 |
| 20260904091210 | 81 | 205 | 7.0 | 13.0 | 0.00 | 0.00 | 0.00 | 50 | 1018.6 |
| 20260904090210 | 80 | 321 | 9.0 | 14.0 | 0.00 | 0.00 | 0.00 | 50 | 1018.6 |
| 20260904085210 | 79 | 237 | 7.0 | 15.0 | 0.00 | 0.00 | 0.00 | 52 | 1018.7 |
| 20260904084210 | 78 | 205 | 8.0 | 13.0 | 0.00 | 0.00 | 0.00 | 52 | 1018.7 |
| 20260904083210 | 77 | 165 | 9.0 | 14.0 | 0.00 | 0.00 | 0.00 | 53 | 1018.8 |
| 20260904082210 | 77 | 186 | 7.0 | 14.0 | 0.00 | 0.00 | 0.00 | 54 | 1018.8 |
| 20260904081210 | 76 | 184 | 6.0 | 13.0 | 0.00 | 0.00 | 0.00 | 56 | 1018.9 |
| 20260904080210 | 75 | 194 | 7.0 | 15.0 | 0.00 | 0.00 | 0.00 | 57 | 1019.0 |
| 20260904075210 | 74 | 248 | 7.0 | 13.0 | 0.00 | 0.00 | 0.00 | 60 | 1019.0 |
| 20260904074210 | 73 | 191 | 8.0 | 14.0 | 0.00 | 0.00 | 0.00 | 62 | 1018.8 |
| 20260904073210 | 72 | 205 | 5.0 | 14.0 | 0.00 | 0.00 | 0.00 | 64 | 1018.9 |
| 20260904072210 | 70 | 188 | 6.0 | 11.0 | 0.00 | 0.00 | 0.00 | 69 | 1019.0 |
| 20260904071210 | 69 | 223 | 6.0 | 10.0 | 0.00 | 0.00 | 0.00 | 72 | 1019.1 |
| 20260904070210 | 67 | 229 | 5.0 | 10.0 | 0.00 | 0.00 | 0.00 | 75 | 1019.3 |
| 20260904065210 | 66 | 236 | 4.0 | 8.0 | 0.00 | 0.00 | 0.00 | 79 | 1019.4 |
| 20260904064210 | 65 | 234 | 3.0 | 9.0 | 0.00 | 0.00 | 0.00 | 81 | 1019.4 |
| 20260904063211 | 64 | 247 | 4.0 | 8.0 | 0.00 | 0.00 | 0.00 | 82 | 1019.5 |
| 20260904062210 | 63 | 211 | 5.0 | 8.0 | 0.00 | 0.00 | 0.00 | 83 | 1019.7 |
| 20260904061210 | 62 | 209 | 4.0 | 7.0 | 0.00 | 0.00 | 0.00 | 83 | 1019.7 |
| 20260904060210 | 62 | 232 | 5.0 | 7.0 | 0.00 | 0.00 | 0.00 | 84 | 1019.7 |
| 20260904055210 | 61 | 235 | 4.0 | 9.0 | 0.00 | 0.00 | 0.00 | 83 | 1019.8 |
| 20260904054210 | 61 | 229 | 3.0 | 7.0 | 0.00 | 0.00 | 0.00 | 83 | 1019.8 |
| 20260904053210 | 61 | 209 | 3.0 | 5.0 | 0.00 | 0.00 | 0.00 | 83 | 1019.9 |
| 20260904052210 | 61 | 190 | 1.0 | 4.0 | 0.00 | 0.00 | 0.00 | 83 | 1019.9 |
| 20260904051210 | 61 | 200 | 1.0 | 4.0 | 0.00 | 0.00 | 0.00 | 82 | 1019.8 |
| 20260904050210 | 61 | 196 | 3.0 | 5.0 | 0.00 | 0.00 | 0.00 | 82 | 1019.8 |
| 20260904045210 | 61 | 202 | 3.0 | 5.0 | 0.00 | 0.00 | 0.00 | 82 | 1019.8 |
| 20260904044210 | 61 | 214 | 3.0 | 6.0 | 0.00 | 0.00 | 0.00 | 82 | 1019.9 |
| 20260904043210 | 61 | 237 | 3.0 | 6.0 | 0.00 | 0.00 | 0.00 | 82 | 1019.9 |
| 20260904042210 | 61 | 219 | 4.0 | 8.0 | 0.00 | 0.00 | 0.00 | 82 | 1020.0 |
| 20260904041210 | 61 | 221 | 4.0 | 8.0 | 0.00 | 0.00 | 0.00 | 82 | 1020.0 |
| 20260904040210 | 61 | 217 | 5.0 | 7.0 | 0.00 | 0.00 | 0.00 | 82 | 1020.0 |
| 20260904035210 | 61 | 205 | 3.0 | 7.0 | 0.00 | 0.00 | 0.00 | 81 | 1020.2 |
| 20260904034210 | 61 | 211 | 4.0 | 6.0 | 0.00 | 0.00 | 0.00 | 81 | 1020.3 |
| 20260904033210 | 61 | 186 | 3.0 | 5.0 | 0.00 | 0.00 | 0.00 | 80 | 1020.5 |
| 20260904032210 | 61 | 188 | 3.0 | 5.0 | 0.00 | 0.00 | 0.00 | 80 | 1020.5 |
| 20260904031210 | 62 | 207 | 3.0 | 4.0 | 0.00 | 0.00 | 0.00 | 80 | 1020.6 |
| 20260904030210 | 62 | 198 | 3.0 | 5.0 | 0.00 | 0.00 | 0.00 | 80 | 1020.6 |
| 20260904025210 | 62 | 209 | 1.0 | 5.0 | 0.00 | 0.00 | 0.00 | 79 | 1020.6 |
| 20260904024210 | 62 | 227 | 3.0 | 6.0 | 0.00 | 0.00 | 0.00 | 79 | 1020.6 |
| 20260904023210 | 62 | 215 | 3.0 | 8.0 | 0.00 | 0.00 | 0.00 | 80 | 1020.8 |
| 20260904022210 | 62 | 215 | 4.0 | 7.0 | 0.00 | 0.00 | 0.00 | 80 | 1020.9 |
| 20260904021210 | 62 | 234 | 4.0 | 7.0 | 0.00 | 0.00 | 0.00 | 80 | 1020.9 |
| 20260904020209 | 62 | 205 | 4.0 | 7.0 | 0.00 | 0.00 | 0.00 | 80 | 1020.9 |
| 20260904015210 | 62 | 213 | 3.0 | 6.0 | 0.00 | 0.00 | 0.00 | 80 | 1021.0 |
| 20260904014210 | 62 | 212 | 4.0 | 6.0 | 0.00 | 0.00 | 0.00 | 80 | 1021.0 |
| 20260904013209 | 62 | 241 | 4.0 | 6.0 | 0.00 | 0.00 | 0.00 | 80 | 1021.0 |
| 20260904012209 | 62 | 192 | 2.0 | 5.0 | 0.00 | 0.00 | 0.00 | 80 | 1021.1 |
| 20260904011209 | 62 | 214 | 0.0 | 1.0 | 0.00 | 0.00 | 0.00 | 80 | 1021.1 |
| 20260904010210 | 63 | 168 | 0.0 | 0.0 | 0.00 | 0.00 | 0.00 | 79 | 1021.2 |
| 20260904005210 | 63 | 213 | 0.0 | 0.0 | 0.00 | 0.00 | 0.00 | 78 | 1021.2 |
| 20260904004210 | 63 | 207 | 2.0 | 3.0 | 0.00 | 0.00 | 0.00 | 78 | 1021.3 |
| 20260904003210 | 64 | 188 | 0.0 | 4.0 | 0.00 | 0.00 | 0.00 | 77 | 1021.3 |
| 20260904002210 | 64 | 182 | 0.0 | 3.0 | 0.00 | 0.00 | 0.00 | 75 | 1021.5 |